Time,TemperatureF,DewpointF,PressureIn,WindDirection,WindDirectionDegrees,WindSpeedMPH,WindSpeedGustMPH,Humidity,HourlyPrecipIn,Conditions,Clouds,dailyrainin,SolarRadiationWatts/m^2,SoftwareType,DateUTC
2014-01-03 00:21:00,31.0,31.0,-100.00,SW,219,2.0,5.0,98,0.00,,,0.01,0.000000,,2014-01-03 08:21:00,
2014-01-03 00:32:00,31.0,31.0,-100.00,SW,219,2.0,5.0,98,0.00,,,0.01,0.000000,,2014-01-03 08:32:00,
2014-01-03 00:42:00,31.0,31.0,-100.00,SW,219,2.0,5.0,98,0.00,,,0.01,0.000000,,2014-01-03 08:42:00,
2014-01-03 00:52:00,31.0,31.0,-100.00,SW,219,2.0,5.0,98,0.00,,,0.01,0.000000,,2014-01-03 08:52:00,
2014-01-03 01:21:00,30.0,29.0,-100.00,WSW,244,5.0,7.0,98,0.00,,,0.01,0.000000,,2014-01-03 09:21:00,
2014-01-03 01:33:00,30.0,29.0,-100.00,WSW,244,5.0,7.0,98,0.00,,,0.01,0.000000,,2014-01-03 09:33:00,
2014-01-03 01:43:00,30.0,29.0,-100.00,WSW,244,5.0,7.0,98,0.00,,,0.01,0.000000,,2014-01-03 09:43:00,
2014-01-03 01:53:00,30.0,29.0,-100.00,WSW,244,5.0,7.0,98,0.00,,,0.01,0.000000,,2014-01-03 09:53:00,
2014-01-03 02:23:00,30.0,29.0,-100.00,WNW,298,1.0,6.0,98,0.00,,,0.01,0.000000,,2014-01-03 10:23:00,
2014-01-03 02:33:00,30.0,29.0,-100.00,WNW,298,1.0,6.0,98,0.00,,,0.01,0.000000,,2014-01-03 10:33:00,
2014-01-03 02:42:00,30.0,29.0,-100.00,WNW,298,1.0,6.0,98,0.00,,,0.01,0.000000,,2014-01-03 10:42:00,
2014-01-03 02:52:00,30.0,29.0,-100.00,WNW,298,1.0,6.0,98,0.00,,,0.01,0.000000,,2014-01-03 10:52:00,
2014-01-03 03:22:00,29.0,29.0,-100.00,WSW,250,3.0,8.0,98,0.00,,,0.01,0.000000,,2014-01-03 11:22:00,
2014-01-03 03:32:00,29.0,29.0,-100.00,WSW,250,3.0,8.0,98,0.00,,,0.01,0.000000,,2014-01-03 11:32:00,
2014-01-03 03:42:00,29.0,29.0,-100.00,WSW,250,3.0,8.0,98,0.00,,,0.01,0.000000,,2014-01-03 11:42:00,
2014-01-03 03:53:00,29.0,29.0,-100.00,WSW,250,3.0,8.0,98,0.00,,,0.01,0.000000,,2014-01-03 11:53:00,
2014-01-03 04:22:00,29.0,28.0,-100.00,NE,35,1.0,5.0,95,0.00,,,-99.99,0.000000,,2014-01-03 12:22:00,
2014-01-03 04:32:00,29.0,28.0,-100.00,NE,35,1.0,5.0,95,0.00,,,-99.99,0.000000,,2014-01-03 12:32:00,
2014-01-03 04:42:00,29.0,28.0,-100.00,NE,35,1.0,5.0,95,0.00,,,-99.99,0.000000,,2014-01-03 12:42:00,
2014-01-03 04:52:00,29.0,28.0,-100.00,NE,35,1.0,5.0,95,0.00,,,-99.99,0.000000,,2014-01-03 12:52:00,
2014-01-03 05:22:00,26.0,23.0,-100.00,ESE,106,1.0,9.0,90,0.00,,,-99.99,0.000000,,2014-01-03 13:22:00,
2014-01-03 05:32:00,26.0,23.0,-100.00,ESE,106,1.0,9.0,90,0.00,,,-99.99,0.000000,,2014-01-03 13:32:00,
2014-01-03 05:42:00,26.0,23.0,-100.00,ESE,106,1.0,9.0,90,0.00,,,-99.99,0.000000,,2014-01-03 13:42:00,
2014-01-03 05:52:00,26.0,23.0,-100.00,ESE,106,1.0,9.0,90,0.00,,,-99.99,0.000000,,2014-01-03 13:52:00,
2014-01-03 06:22:00,27.0,25.0,-100.00,East,96,3.0,5.0,93,0.00,,,0.01,0.000000,,2014-01-03 14:22:00,
2014-01-03 06:32:00,27.0,25.0,-100.00,East,96,3.0,5.0,93,0.00,,,0.01,0.000000,,2014-01-03 14:32:00,
2014-01-03 06:42:00,27.0,25.0,-100.00,East,96,3.0,5.0,93,0.00,,,0.01,0.000000,,2014-01-03 14:42:00,
2014-01-03 06:52:00,27.0,25.0,-100.00,East,96,3.0,5.0,93,0.00,,,0.01,0.000000,,2014-01-03 14:52:00,
2014-01-03 07:22:00,26.0,25.0,-100.00,WNW,298,3.0,5.0,94,0.00,,,0.01,0.000000,,2014-01-03 15:22:00,
2014-01-03 07:33:00,26.0,25.0,-100.00,WNW,298,3.0,5.0,94,0.00,,,0.01,0.000000,,2014-01-03 15:33:00,
2014-01-03 07:43:00,26.0,25.0,-100.00,WNW,298,3.0,5.0,94,0.00,,,0.01,0.000000,,2014-01-03 15:43:00,
2014-01-03 07:53:00,26.0,25.0,-100.00,WNW,298,3.0,5.0,94,0.00,,,0.01,0.000000,,2014-01-03 15:53:00,
2014-01-03 08:22:00,26.0,25.0,-100.00,East,83,3.0,6.0,94,0.00,,,0.01,1.000000,,2014-01-03 16:22:00,
2014-01-03 08:33:00,26.0,25.0,-100.00,East,83,3.0,6.0,94,0.00,,,0.01,1.000000,,2014-01-03 16:33:00,
2014-01-03 08:43:00,26.0,25.0,-100.00,East,83,3.0,6.0,94,0.00,,,0.01,1.000000,,2014-01-03 16:43:00,
2014-01-03 08:52:00,26.0,25.0,-100.00,East,83,3.0,6.0,94,0.00,,,0.01,1.000000,,2014-01-03 16:52:00,
2014-01-03 09:22:00,28.0,26.0,-100.00,NE,52,3.0,6.0,93,0.00,,,0.01,55.000000,,2014-01-03 17:22:00,
2014-01-03 09:33:00,28.0,26.0,-100.00,NE,52,3.0,6.0,93,0.00,,,0.01,55.000000,,2014-01-03 17:33:00,
2014-01-03 09:42:00,28.0,26.0,-100.00,NE,52,3.0,6.0,93,0.00,,,0.01,55.000000,,2014-01-03 17:42:00,
2014-01-03 09:53:00,28.0,26.0,-100.00,NE,52,3.0,6.0,93,0.00,,,0.01,55.000000,,2014-01-03 17:53:00,
2014-01-03 10:22:00,31.0,28.0,-100.00,NNE,31,8.0,11.0,89,0.00,,,0.01,222.000000,,2014-01-03 18:22:00,
2014-01-03 10:33:00,31.0,28.0,-100.00,NNE,31,8.0,11.0,89,0.00,,,0.01,222.000000,,2014-01-03 18:33:00,
2014-01-03 10:42:00,31.0,28.0,-100.00,NNE,31,8.0,11.0,89,0.00,,,0.01,222.000000,,2014-01-03 18:42:00,
2014-01-03 10:52:00,31.0,28.0,-100.00,NNE,31,8.0,11.0,89,0.00,,,0.01,222.000000,,2014-01-03 18:52:00,
2014-01-03 11:22:00,35.0,30.0,-100.00,South,175,3.0,9.0,81,0.00,,,0.00,407.000000,,2014-01-03 19:22:00,
2014-01-03 11:32:00,35.0,30.0,-100.00,South,175,3.0,9.0,81,0.00,,,0.00,407.000000,,2014-01-03 19:32:00,
2014-01-03 11:42:00,35.0,30.0,-100.00,South,175,3.0,9.0,81,0.00,,,0.00,407.000000,,2014-01-03 19:42:00,
2014-01-03 11:52:00,35.0,30.0,-100.00,South,175,3.0,9.0,81,0.00,,,0.00,407.000000,,2014-01-03 19:52:00,
2014-01-03 12:21:00,37.0,30.0,-100.00,WSW,258,4.0,7.0,75,0.00,,,0.00,449.000000,,2014-01-03 20:21:00,
2014-01-03 12:32:00,37.0,30.0,-100.00,WSW,258,4.0,7.0,75,0.00,,,0.00,449.000000,,2014-01-03 20:32:00,
2014-01-03 12:42:00,37.0,30.0,-100.00,WSW,258,4.0,7.0,75,0.00,,,0.00,449.000000,,2014-01-03 20:42:00,
2014-01-03 12:52:00,37.0,30.0,-100.00,WSW,258,4.0,7.0,75,0.00,,,0.00,449.000000,,2014-01-03 20:52:00,
2014-01-03 13:21:00,39.0,31.0,-100.00,West,267,3.0,6.0,73,0.00,,,0.00,206.000000,,2014-01-03 21:21:00,
2014-01-03 13:33:00,39.0,31.0,-100.00,West,267,3.0,6.0,73,0.00,,,0.00,206.000000,,2014-01-03 21:33:00,
2014-01-03 13:43:00,39.0,31.0,-100.00,West,267,3.0,6.0,73,0.00,,,0.00,206.000000,,2014-01-03 21:43:00,
2014-01-03 13:53:00,39.0,31.0,-100.00,West,267,3.0,6.0,73,0.00,,,0.00,206.000000,,2014-01-03 21:53:00,
2014-01-03 14:23:00,40.0,30.0,-100.00,SSW,196,4.0,7.0,68,0.00,,,0.00,280.000000,,2014-01-03 22:23:00,
2014-01-03 14:33:00,40.0,30.0,-100.00,SSW,196,4.0,7.0,68,0.00,,,0.00,280.000000,,2014-01-03 22:33:00,
2014-01-03 14:42:00,40.0,30.0,-100.00,SSW,196,4.0,7.0,68,0.00,,,0.00,280.000000,,2014-01-03 22:42:00,
2014-01-03 14:53:00,40.0,30.0,-100.00,SSW,196,4.0,7.0,68,0.00,,,0.00,280.000000,,2014-01-03 22:53:00,
2014-01-03 15:21:00,38.0,28.0,-100.00,WNW,290,3.0,6.0,67,0.00,,,0.00,180.000000,,2014-01-03 23:21:00,
2014-01-03 15:32:00,38.0,28.0,-100.00,WNW,290,3.0,6.0,67,0.00,,,0.00,180.000000,,2014-01-03 23:32:00,
2014-01-03 15:42:00,38.0,28.0,-100.00,WNW,290,3.0,6.0,67,0.00,,,0.00,180.000000,,2014-01-03 23:42:00,
2014-01-03 15:52:00,38.0,28.0,-100.00,WNW,290,3.0,6.0,67,0.00,,,0.00,180.000000,,2014-01-03 23:52:00,
2014-01-03 16:22:00,38.0,27.0,-100.00,NNE,20,3.0,10.0,65,0.00,,,0.00,91.000000,,2014-01-04 00:22:00,
2014-01-03 16:32:00,38.0,27.0,-100.00,NNE,20,3.0,10.0,65,0.00,,,0.00,91.000000,,2014-01-04 00:32:00,
2014-01-03 16:42:00,38.0,27.0,-100.00,NNE,20,3.0,10.0,65,0.00,,,0.00,91.000000,,2014-01-04 00:42:00,
2014-01-03 16:52:00,38.0,27.0,-100.00,NNE,20,3.0,10.0,65,0.00,,,0.00,91.000000,,2014-01-04 00:52:00,
2014-01-03 17:42:00,38.0,17.0,-100.00,NNE,14,10.0,16.0,42,0.00,,,0.00,3.000000,,2014-01-04 01:42:00,
2014-01-03 17:52:00,38.0,17.0,-100.00,NNE,14,10.0,16.0,42,0.00,,,0.00,3.000000,,2014-01-04 01:52:00,
2014-01-03 18:22:00,34.0,15.0,-100.00,East,91,2.0,14.0,45,0.00,,,0.00,0.000000,,2014-01-04 02:22:00,
2014-01-03 18:32:00,34.0,15.0,-100.00,East,91,2.0,14.0,45,0.00,,,0.00,0.000000,,2014-01-04 02:32:00,
2014-01-03 18:42:00,34.0,15.0,-100.00,East,91,2.0,14.0,45,0.00,,,0.00,0.000000,,2014-01-04 02:42:00,
2014-01-03 18:52:00,34.0,15.0,-100.00,East,91,2.0,14.0,45,0.00,,,0.00,0.000000,,2014-01-04 02:52:00,
2014-01-03 19:22:00,32.0,15.0,-100.00,SW,220,3.0,9.0,49,0.00,,,0.00,0.000000,,2014-01-04 03:22:00,
2014-01-03 19:33:00,32.0,15.0,-100.00,SW,220,3.0,9.0,49,0.00,,,0.00,0.000000,,2014-01-04 03:33:00,
2014-01-03 19:43:00,32.0,15.0,-100.00,SW,220,3.0,9.0,49,0.00,,,0.00,0.000000,,2014-01-04 03:43:00,
2014-01-03 19:54:00,32.0,15.0,-100.00,SW,220,3.0,9.0,49,0.00,,,0.00,0.000000,,2014-01-04 03:54:00,
2014-01-03 20:22:00,31.0,14.0,-100.00,NW,323,5.0,14.0,48,0.00,,,0.00,0.000000,,2014-01-04 04:22:00,
2014-01-03 20:33:00,31.0,14.0,-100.00,NW,323,5.0,14.0,48,0.00,,,0.00,0.000000,,2014-01-04 04:33:00,
2014-01-03 20:43:00,31.0,14.0,-100.00,NW,323,5.0,14.0,48,0.00,,,0.00,0.000000,,2014-01-04 04:43:00,
2014-01-03 20:52:00,31.0,14.0,-100.00,NW,323,5.0,14.0,48,0.00,,,0.00,0.000000,,2014-01-04 04:52:00,
2014-01-03 21:22:00,33.0,14.0,-100.00,North,349,7.0,12.0,45,0.00,,,0.00,0.000000,,2014-01-04 05:22:00,
2014-01-03 21:33:00,33.0,14.0,-100.00,North,349,7.0,12.0,45,0.00,,,0.00,0.000000,,2014-01-04 05:33:00,
2014-01-03 21:43:00,33.0,14.0,-100.00,North,349,7.0,12.0,45,0.00,,,0.00,0.000000,,2014-01-04 05:43:00,
2014-01-03 21:53:00,33.0,14.0,-100.00,North,349,7.0,12.0,45,0.00,,,0.00,0.000000,,2014-01-04 05:53:00,
2014-01-03 22:22:00,32.0,13.0,-100.00,WNW,300,3.0,7.0,44,0.00,,,0.00,0.000000,,2014-01-04 06:22:00,
2014-01-03 22:32:00,32.0,13.0,-100.00,WNW,300,3.0,7.0,44,0.00,,,0.00,0.000000,,2014-01-04 06:32:00,
2014-01-03 22:42:00,32.0,13.0,-100.00,WNW,300,3.0,7.0,44,0.00,,,0.00,0.000000,,2014-01-04 06:42:00,
2014-01-03 22:52:00,32.0,13.0,-100.00,WNW,300,3.0,7.0,44,0.00,,,0.00,0.000000,,2014-01-04 06:52:00,
2014-01-03 23:22:00,30.0,10.0,-100.00,SE,133,4.0,8.0,43,0.00,,,0.00,0.000000,,2014-01-04 07:22:00,
2014-01-03 23:32:00,30.0,10.0,-100.00,SE,133,4.0,8.0,43,0.00,,,0.00,0.000000,,2014-01-04 07:32:00,
2014-01-03 23:42:00,30.0,10.0,-100.00,SE,133,4.0,8.0,43,0.00,,,0.00,0.000000,,2014-01-04 07:42:00,
2014-01-03 23:52:00,30.0,10.0,-100.00,SE,133,4.0,8.0,43,0.00,,,0.00,0.000000,,2014-01-04 07:52:00,